Orbital Elements at Epoch 2459200.5 (2020-Dec-17.0) TDB
Reference: JPL 21 (heliocentric ecliptic J2000)
Element | Value | Uncertainty (1-sigma) | Units |
e | .1855310766663104 | 6.514e-08 | |
a | 2.602622006927068 | 2.109e-08 | au |
q | 2.119754743826455 | 1.7831e-07 | au |
i | 15.31230942632534 | 6.5028e-06 | deg |
node | 155.4312693123341 | 1.4855e-05 | deg |
peri | 188.9803780743076 | 1.7999e-05 | deg |
M | 263.458986764805 | 1.267e-05 | deg |
tp | 2459611.767532286869 (2022-Feb-01.26753229) | 5.6651e-05 | TDB |
period | 1533.610500467559 4.20 | 1.8641e-05 5.104e-08 | d yr |
n | .2347401767855952 | 2.8533e-09 | deg/d |
Q | 3.08548927002768 | 2.5003e-08 | au |
|
| | Orbit Determination Parameters
Additional Information
|